Regional Weather Roundup
Issued by NWS

Home | Current Version | Previous Version | Text Only | Print | Product List | Glossary On
Versions: 1 2 3 4 5 6 7 8 9 10 11 12 13 14 15 16 17 18 19 20 21 22 23 24 25 26 27 28 29 30 31 32 33 34 35 36 37 38 39 40 41 42 43 44 45 46 47 48 49 50
000
ASUS45 KBOU 230507
RWRCO

WEATHER ROUNDUP FOR COLORADO
NATIONAL WEATHER SERVICE DENVER/BOULDER CO
1000 PM MST MON DEC 22 2014

NOTE: "FAIR" INDICATES FEW OR NO CLOUDS BELOW 12000 FEET WITH NO
SIGNIFICANT WEATHER AND/OR OBSTRUCTIONS TO VISIBILITY.

COZ001>005-013-030-031-230600-
...NORTHWEST COLORADO...

CITY           SKY/WX    TMP DP  RH WIND       PRES   REMARKS
CRAIG            N/A     24  15  68 N9        29.99R WCI  14
HAYDEN         MOCLDY    23   9  54 N13G18    29.96R WCI  11
MEEKER         FLURRIES  26  16  65 N17G28    29.98R WCI  13
MOUNT WERNER   NOT AVBL
STEAMBOAT SPGS CLOUDY    22  13  68 CALM      29.93R
WALDEN         MOCLDY    14   9  79 NW12      29.86R WCI   0
$$

COZ006>008-011-230600-
...WEST CENTRAL VALLEYS...

CITY           SKY/WX    TMP DP  RH WIND       PRES   REMARKS
GRAND JUNCTION MOCLDY    35  19  52 N8        29.98R WCI  29
MONTROSE       CLOUDY    32  25  75 N7        29.97R WCI  26
EAGLE          MOCLDY    21  19  93 VRB5      29.96R WCI  15
RIFLE          MOCLDY    31  19  61 NW15      29.95R WCI  20
DELTA          CLOUDY    38  16  41 N10G17    29.97R
NUCLA          CLOUDY    32  25  74 N5        29.99R WCI  27
$$

COZ017>023-064>068-230600-
...SOUTHWEST COLORADO...

CITY           SKY/WX    TMP DP  RH WIND       PRES   REMARKS
DURANGO        PTCLDY    29  20  69 NW14      29.85R WCI  18
CORTEZ         CLOUDY    33  27  78 N8        29.93R WCI  26
PAGOSA SPRINGS MOCLDY    24  15  68 N5        29.85R WCI  18
TELLURIDE      CLOUDY    21  12  68 W14       29.88S WCI   8
WOLF CREEK PAS LGT SNOW   5   1  85 MISG      29.79R
$$

COZ009-010-012-014-032>034-037-058>063-230600-
...CENTRAL COLORADO...

CITY           SKY/WX    TMP DP  RH WIND       PRES   REMARKS
ASPEN          CLOUDY    20  16  84 CALM      29.88R
BUENA VISTA    MOCLDY    19  10  68 NW9       29.84R WCI   7
COPPER MTN     CLOUDY     9   1  72 W28       29.74R WCI -13
BERTHOUD PASS  NOT AVBL
COTTONWOOD PAS CLOUDY    19   3  49 CALM      29.80R
GUNNISON       PTCLDY    21   3  45 NW10      29.88R WCI  10
KREMMLING      MOCLDY    12   7  79 CALM      29.92R
LEADVILLE      CLOUDY    10   4  76 N16G25    29.79R WCI  -7
SALIDA         MOCLDY    25  11  56 NW8       29.92R WCI  16
SUNLIGHT       CLOUDY   N/A N/A N/A MISG      29.87R
WILKERSON PASS LGT SNOW   9   5  85 N10G18    29.77R VSB 1   WCI  -6
$$

COZ069>075-230600-
...SAN LUIS VALLEY/SANGRE DE CRISTO MOUNTAINS...

CITY           SKY/WX    TMP DP  RH WIND       PRES   REMARKS
ALAMOSA        PTCLDY    20  10  65 NW10      29.81R WCI   9
LA VETA PASS   LGT SNOW  12  10  92 NE6       29.78R VSB 1   WCI   3
SAGUACHE       CLOUDY    23  14  68 N12       29.85R WCI  12
$$

COZ035-036-038>040-230600-
...NORTHERN COLORADO FRONT RANGE...

CITY           SKY/WX    TMP DP  RH WIND       PRES   REMARKS
DENVER INTL AP MOCLDY    27  16  63 NW16G26   29.84R WCI  15
DMNS CITY PARK   N/A     28  17  64 NW6       29.86R WCI  21
AURORA         PTCLDY    23  16  75 N7        29.85R WCI  15
FRONT RANGE AP PTCLDY    27  19  74 NW17G23   29.85R WCI  14
ERIE MUNI ARPT   N/A     26  16  66 CALM      29.87R
BOULDER MUN AP MOCLDY    28  19  69 SW8       29.86R WCI  20
CENTENNIAL     MOCLDY    24  17  74 NW7       29.85R WCI  16
BROOMFIELD     MOCLDY    28  16  59 NW7       29.85R WCI  21
FORT COLLINS   PTCLDY    30  12  47 NW23      29.85S WCI  17
LONGMONT       PTCLDY    32  11  40 NW8G17    29.88R WCI  25
$$

COZ041-046-047-076>085-087-088-230600-
...PIKES PEAK/PALMER DIVIDE AND SOUTHERN FOOTHILLS...

CITY           SKY/WX    TMP DP  RH WIND       PRES   REMARKS
COLO. SPRINGS  CLOUDY    27  19  72 NW13      29.85R WCI  16
A. F. ACADEMY  FLURRIES  24  20  84 N8        29.83R WCI  15
ELLICOTT       NOT AVBL
FALCON         CLOUDY    23  16  75 N10       29.82R WCI  12
FORT CARSON    LGT SNOW  27  23  86 N13       29.85R WCI  16
LIMON          PTCLDY    27  19  72 NW21      29.80S WCI  13
MONUMENT HILL  CLOUDY    21  16  79 N14       29.81R WCI   8
TRINIDAD       CLOUDY    26  22  84 N8        29.87R WCI  18
$$

COZ042>045-048>051-090-091-230600-
...NORTHEAST COLORADO...

CITY           SKY/WX    TMP DP  RH WIND       PRES   REMARKS
GREELEY ARPT   PTCLDY    32  16  51 NW21G26   29.83S WCI  20
AKRON          PTCLDY    27  20  75 NW20G28   29.76R WCI  13
BURLINGTON     CLEAR     33  22  63 NW26G38   29.74R WCI  20
WRAY           MOCLDY    32  25  76 W18G25    29.73R WCI  20
STERLING       PTCLDY    34  27  75 NW26G35   29.75S WCI  21
HOLYOKE        MOCLDY    36  27  69 NW23G35   29.70R
FORT MORGAN    CLEAR     25  19  77 W16       29.81S WCI  12
$$

COZ086-089-092>099-230600-
...SOUTHEAST COLORADO...

CITY           SKY/WX    TMP DP  RH WIND       PRES   REMARKS
PUEBLO         MOCLDY    29  26  89 NW6       29.87R WCI  23
LA JUNTA       CLOUDY    34  26  72 NW16      29.86R WCI  24
LAMAR          CLOUDY    36  28  73 W10       29.82R
SPRINGFIELD      N/A     33  28  81 NW14      29.81R WCI  23
$$



USA.gov is the U.S. government's official web portal to all federal, state and local government web resources and services.